Probability
0 0 0 0 0 0 0 0 0 0 0 0 0 0 0 0 0 0 0 0 0 0 0 0 0 0 0 0 0 0 0 0 0 0 0 0 0 0 0 0 0 0 0 0
0 0 0 0 0 0 0 0 0 0 0 0 0 0 0 0 0 0 0 0 0 0 0 0 0 0 0 0 0 0 0 0 0 0 0 0 0 0 0 0 0 0 0 0
0 0 0 0 0 0 0 0 0 0 0 0 0 0 0 0 0 0 0 0 0 0 0 0 0 0 0 0 0 0 0 0 0 0 0 0 0 0 0 0 0 0 0 0
0 0 0 0 0 0 0 0 0 0 0 0 0 0 0 0 0 0 0 0 0 0 0 0 0 0 0 0 0 0 0 0 0 0 0 0 0 0 0 0 0 0 0 0
0 0 0 0 0 0 0 0 0 0 0 0 0 0 0 0 0 0 0 0 0 0 0 0 0 0 0 0 0 0 0 0 0 0 0 0 0 0 0 0 0 0 0 0
0 0 0 0 0 0 0 0 0 0 0 0 0 0 0 0 0 0 0 0 0 0 0 0 0 0 0 0 0 0 0 0 0 0 0 0 0 0 0 0 0 0 0 0
0 0 0 0 0 0 0 0 0 0 0 0 0 0 0 0 0 0 0 0 0 0 0 0 0 0 0 0 0 0 0 0 0 0 0 0 0 0 0 0 0 0 0 0
0 0 0 0 0 0 0 0 0 0 0 0 0 0 0 0 0 0 0 0 0 0 0 0 0 0 0 0 0 0 0 0 0 0 0 0 0 0 0 0 0 0 0 0
0 0 0 0 0 0 0 0 0 0 0 0 0 0 0 0 0 0 0 0 0 0 0 0 0 0 0 1 1 1 0 0 0 0 0 0 0 0 0 0 0 0 0 0
0 0 0 0 0 0 0 0 0 0 0 0 0 0 0 0 0 0 0 0 0 0 0 0 0 0 0 1 2 1 0 0 0 0 0 0 0 0 0 0 0 0 0 0
0 0 0 0 0 0 0 0 0 0 0 0 0 0 0 0 0 0 0 0 0 0 0 0 0 0 0 1 1 1 0 0 0 0 0 0 0 0 0 0 0 0 0 0
0 0 0 0 0 0 0 0 0 0 0 0 0 0 0 0 0 0 0 0 0 0 0 0 0 0 0 0 0 0 0 0 0 0 0 0 0 0 0 0 0 0 0 0
0 0 0 0 0 0 0 0 0 0 0 0 0 0 0 0 0 0 0 0 0 0 0 0 0 0 0 0 0 0 0 0 0 0 0 0 0 0 0 0 0 0 0 0
0 0 0 0 0 0 0 0 0 0 0 0 0 0 0 0 0 0 0 0 0 0 0 0 0 0 0 0 0 0 0 0 0 0 0 0 0 0 0 0 0 0 0 0
0 0 0 0 0 0 0 0 0 0 0 0 0 0 0 0 0 0 0 0 0 0 0 0 0 0 0 0 0 0 0 0 0 0 0 0 0 0 0 0 0 0 0 0
0 0 0 0 0 0 0 0 0 0 0 0 0 0 0 0 0 0 0 0 0 0 0 0 0 0 0 0 0 0 0 0 0 0 0 0 0 0 0 0 0 0 0 0
0 0 0 0 0 0 0 0 0 0 0 0 0 0 0 0 0 0 0 0 0 0 0 0 0 0 0 0 0 0 0 0 0 0 0 0 0 0 0 0 0 0 0 0
0 0 0 0 0 0 0 0 0 0 0 0 0 0 0 0 0 0 0 0 0 0 0 0 0 0 0 0 0 0 0 0 0 0 0 0 0 0 0 0 0 0 0 0
0 0 0 0 0 0 0 0 0 0 0 0 0 0 0 0 0 0 0 0 0 0 0 0 0 0 0 0 0 0 0 0 0 0 0 0 0 0 0 0 0 0 0 0
0 0 0 0 0 0 0 0 0 0 0 0 0 0 0 0 0 0 0 0 0 0 0 0 0 0 0 0 0 0 0 0 0 0 0 0 0 0 0 0 0 0 0 0
0 0 0 0 0 0 0 0 0 0 0 0 0 0 0 0 0 0 0 0 0 0 0 0 0 0 0 0 0 0 0 0 0 0 0 0 0 0 0 0 0 0 0 0
0 0 0 0 0 0 0 0 0 0 0 0 0 0 0 0 0 0 0 0 0 0 0 0 0 0 0 0 0 0 0 0 0 0 0 0 0 0 0 0 0 0 0 0
0 0 0 0 0 0 0 0 0 0 0 0 0 0 0 0 0 0 0 0 0 0 0 0 0 0 0 0 0 0 0 0 0 0 0 0 0 0 0 0 0 0 0 0
0 0 0 0 0 0 0 0 0 0 0 0 0 0 0 0 0 0 0 0 0 0 0 0 0 0 0 0 0 0 0 0 0 0 0 0 0 0 0 0 0 0 0 0
0 0 0 0 0 0 0 0 0 0 0 0 0 0 0 0 0 0 0 0 0 0 0 0 0 0 0 0 0 0 0 0 0 0 0 0 0 0 0 0 0 0 0 0
0 0 0 0 0 0 0 0 0 0 0 0 0 0 0 0 0 0 0 0 0 0 0 0 0 0 0 0 0 0 0 0 0 0 0 0 0 0 0 0 0 0 0 0
Wind_Speed
2 3 3 6 6 4 3 3 4 5 3 2 6 10 12 7 5 7 6 5 5 6 4 2 2 2 2 2 2 2 2 2 2 2 1 1 1 1 1 1 1 1 1 2
3 3 5 2 3 2 2 3 4 4 2 2 5 11 11 7 7 7 7 6 6 5 3 2 2 2 3 3 3 3 3 3 3 2 2 1 1 1 1 1 1 1 2 2
5 3 2 4 3 3 3 5 4 4 3 2 4 9 6 5 4 5 5 5 5 6 5 4 3 3 3 3 4 4 4 3 3 2 1 1 1 1 0 1 1 1 2 2
3 2 2 3 3 4 4 4 4 2 1 3 1 7 8 5 5 6 6 5 5 5 5 4 4 3 4 4 4 3 3 3 3 3 3 3 2 2 3 2 2 2 2 2
3 2 2 3 4 4 3 0 1 1 2 3 1 4 10 3 5 7 6 6 5 5 4 5 5 5 4 3 3 3 3 3 3 3 4 3 3 2 1 1 1 1 1 2
2 1 2 3 0 3 3 3 3 3 2 4 4 5 9 5 6 5 4 4 4 4 4 4 3 3 3 2 2 2 3 3 3 3 3 4 4 3 2 1 2 1 1 1
2 2 1 2 2 1 2 4 3 4 2 6 2 4 11 7 6 5 5 5 4 4 4 4 3 3 3 3 3 3 3 3 3 4 4 4 4 4 4 3 3 2 2 2
1 4 3 2 4 4 3 5 5 4 5 5 2 8 10 5 4 4 4 4 4 3 4 4 4 4 4 4 4 4 4 4 4 4 4 4 4 3 3 3 3 3 3 3
4 4 1 1 1 5 4 3 3 3 1 4 7 8 10 4 3 3 3 3 4 4 4 4 3 3 3 4 4 5 4 4 4 4 4 3 4 3 3 3 3 2 2 2
4 2 2 1 1 1 3 5 4 3 3 5 6 6 6 5 4 3 3 4 5 4 4 4 3 2 2 3 3 3 4 4 4 4 4 3 3 4 3 3 3 2 2 2
3 3 2 0 5 6 3 3 3 3 3 4 5 8 6 5 4 4 5 5 5 4 4 4 3 2 2 2 2 3 3 2 3 3 3 3 3 3 3 3 3 3 3 3
3 3 3 5 3 2 4 6 7 5 5 4 4 11 3 4 3 4 5 5 4 4 4 3 3 3 3 3 3 3 3 3 4 4 3 3 3 3 3 3 3 3 3 3
4 4 0 3 2 0 2 4 5 3 3 5 6 11 3 2 3 3 4 5 5 4 4 3 3 3 4 3 3 3 3 4 3 3 3 3 3 3 4 4 3 3 3 3
4 4 6 8 6 4 5 5 5 5 5 6 11 12 9 7 7 7 6 6 5 4 4 4 4 4 4 3 3 3 3 3 3 3 3 4 4 4 4 4 3 3 3 3
4 3 5 6 5 4 7 8 9 10 10 11 11 12 15 10 8 8 6 6 5 6 5 5 5 4 4 4 3 3 3 3 3 3 4 4 4 3 3 3 3 3 3 4
3 3 2 5 5 5 8 10 11 12 11 13 12 16 13 9 6 6 6 6 6 7 6 6 5 5 4 4 4 3 3 3 3 3 4 4 3 3 3 4 3 3 3 3
3 3 2 5 3 2 10 11 13 9 9 10 14 14 6 7 8 7 7 7 8 7 6 6 5 5 5 5 4 4 4 2 3 3 4 4 3 3 4 4 3 4 4 3
5 4 2 2 0 10 9 3 8 9 11 11 9 8 7 9 8 7 7 6 7 6 6 5 5 4 4 4 3 3 3 3 3 3 4 4 4 4 4 3 4 4 3 3
5 6 3 3 5 10 8 4 5 7 9 9 11 10 7 4 4 5 5 4 6 6 5 5 4 4 3 4 3 3 3 3 3 4 4 4 4 4 4 4 4 4 3 3
2 4 4 3 4 8 6 2 3 3 8 6 7 8 5 0 2 6 3 3 4 4 3 3 2 2 3 3 3 3 3 3 5 5 5 4 4 4 5 5 4 3 3 3
4 4 6 6 7 10 6 2 4 4 8 3 5 6 4 5 7 5 3 3 3 3 3 2 2 2 3 3 2 3 4 5 5 4 4 3 4 4 4 4 3 3 3 3
8 7 7 6 7 11 4 6 7 8 3 2 3 4 4 5 5 4 4 3 3 3 3 2 2 3 3 2 2 3 5 5 3 3 3 3 3 3 3 3 3 3 3 3
8 9 7 10 10 5 5 7 6 3 4 4 4 4 3 4 5 5 4 3 3 3 3 2 2 3 3 3 3 4 4 3 2 2 3 3 3 3 3 3 3 2 2 2
5 3 4 6 10 7 7 7 6 5 6 5 4 4 4 5 5 5 4 4 3 3 3 2 2 3 4 3 3 4 3 2 2 2 2 2 2 2 2 2 2 2 3 3
7 6 5 9 9 6 8 9 8 6 5 5 5 4 5 5 5 4 4 4 3 3 2 2 2 3 4 4 3 2 2 2 2 2 2 2 2 2 2 2 2 3 3 3
8 9 10 11 9 7 8 5 5 6 6 6 5 4 4 5 5 4 4 4 3 3 2 2 3 4 4 3 3 2 2 2 2 2 2 2 2 2 1 1 1 3 3 4
Wind_Direction
67 89 194 207 196 188 175 203 250 261 275 260 254 268 276 278 263 260 257 252 251 254 258 252 243 217 180 176 178 190 193 190 166 161 171 190 222 232 227 226 230 230 231 205
65 239 234 187 163 165 187 233 262 285 311 259 279 278 274 264 249 242 241 240 243 254 265 253 242 211 195 197 198 196 199 196 189 191 189 192 194 217 224 230 244 238 231 223
184 227 168 153 160 178 220 212 230 255 329 338 315 296 274 270 255 255 243 235 235 229 234 238 233 226 210 208 207 209 206 200 197 182 140 89 71 48 60 270 253 250 232 224
226 254 173 171 205 181 242 222 215 238 314 295 357 291 282 273 283 262 253 246 243 237 230 230 228 231 223 220 213 207 205 198 192 172 167 167 182 210 222 230 237 260 240 225
238 191 166 202 219 178 214 109 159 196 191 290 252 247 282 296 277 269 255 250 247 238 225 224 223 223 227 223 211 206 199 197 191 184 181 183 202 219 222 226 222 245 256 234
246 231 201 207 267 163 151 78 58 52 85 270 226 204 276 245 237 263 273 266 255 239 227 225 224 218 228 221 207 199 195 205 199 192 191 194 204 209 206 219 220 239 259 254
317 278 228 131 87 49 103 98 23 349 332 253 214 219 252 249 240 243 266 279 274 241 227 228 224 221 226 221 209 204 201 212 207 199 204 206 208 206 209 215 218 226 242 253
205 272 224 184 173 173 181 153 169 214 236 275 259 238 254 254 263 269 270 280 285 266 246 240 231 222 222 219 208 204 207 215 209 205 215 215 209 207 218 220 221 223 229 235
185 244 306 198 174 149 156 192 168 144 200 269 263 275 295 268 279 285 299 305 290 279 267 258 250 230 220 222 214 208 208 213 214 212 215 216 214 213 221 223 226 230 237 241
163 224 274 287 102 6 166 150 123 150 203 256 278 265 253 269 270 287 293 288 289 297 289 281 268 247 239 230 224 214 210 212 215 212 213 222 220 220 219 219 227 234 241 239
154 177 277 210 196 192 148 153 155 160 188 197 264 267 225 224 242 266 273 276 278 281 281 279 279 275 275 261 229 220 217 214 219 218 215 219 222 218 213 220 229 228 230 226
170 152 231 240 244 204 187 187 168 181 224 204 234 268 261 225 256 265 275 282 283 277 276 274 274 278 274 253 235 226 221 221 223 217 212 216 218 212 214 223 232 227 224 226
154 147 163 325 320 221 215 199 189 176 167 192 217 263 291 327 312 291 281 284 286 285 288 289 279 272 264 253 239 232 228 227 223 210 207 215 218 216 221 225 227 224 222 227
141 172 198 217 228 192 218 216 196 184 210 226 231 257 282 289 293 293 287 281 281 278 278 278 282 277 264 255 243 239 240 229 220 210 210 219 225 223 225 225 226 227 224 223
142 207 227 249 255 233 236 233 212 213 218 228 247 250 264 266 267 273 276 282 286 286 278 268 270 266 260 259 255 244 245 234 216 214 221 226 231 227 224 222 226 229 228 230
158 198 230 271 257 243 256 245 231 232 232 239 255 264 261 270 268 267 269 269 271 274 275 276 267 259 252 246 244 242 244 240 212 214 226 227 226 225 222 220 222 224 230 235
176 171 200 262 291 315 261 231 215 220 217 208 233 249 269 277 268 262 262 259 261 267 271 266 255 249 247 243 232 228 234 234 222 222 227 224 221 226 225 219 219 225 228 233
176 180 201 241 257 244 246 207 203 221 238 224 238 257 258 261 272 267 249 242 258 265 265 258 250 253 251 244 240 236 226 221 226 228 229 226 223 229 226 217 221 227 226 224
187 175 183 191 236 269 279 235 191 206 255 228 234 255 268 291 313 286 248 234 246 254 254 253 247 244 245 242 232 225 228 225 227 229 229 225 219 224 222 223 226 226 224 230
174 174 180 193 222 246 252 220 191 146 271 242 215 239 250 127 290 274 269 266 268 274 267 266 272 261 249 246 222 213 230 228 235 233 230 225 219 218 223 228 230 230 224 228
168 187 204 211 237 261 249 180 128 178 251 251 203 218 207 206 227 258 281 282 276 285 282 280 274 266 259 252 219 228 236 240 241 229 222 223 220 219 220 224 227 220 221 223
179 183 198 189 219 250 192 143 190 225 264 248 232 223 222 243 260 271 272 274 282 290 289 282 273 277 277 252 218 239 248 251 236 209 216 227 226 222 214 209 220 211 205 217
203 196 191 200 220 244 182 206 227 239 254 251 242 248 236 255 259 261 264 265 274 275 276 273 262 279 285 264 227 239 253 249 219 200 217 228 227 222 211 206 211 211 205 213
236 198 195 243 256 251 245 242 248 240 242 254 251 247 238 245 253 261 262 267 274 279 279 280 275 277 283 280 253 241 253 237 206 214 223 219 215 226 220 211 207 206 207 212
209 180 211 247 260 276 259 239 242 249 250 257 259 244 232 232 248 247 251 257 259 270 280 270 255 267 278 287 272 255 233 204 212 224 223 221 214 211 219 215 216 217 219 216
194 192 201 233 228 218 249 244 222 227 241 239 238 250 244 224 235 240 243 248 254 262 270 273 269 268 276 281 277 266 237 201 203 224 219 216 214 213 210 226 271 258 247 255